Regional Weather Roundup
Issued by NWS

Home | Current Version | Previous Version | Graphics & Text | Print | Product List | Glossary On
Versions: 1 2 3 4 5 6 7 8 9 10 11 12 13 14 15 16 17 18 19 20 21 22 23 24 25 26 27 28 29 30 31 32 33 34 35 36 37 38 39 40 41 42 43 44 45 46 47 48 49 50
000
ASUS43 KIND 110259
RWRIN

WEATHER ROUNDUP FOR INDIANA
NATIONAL WEATHER SERVICE INDIANAPOLIS IN
1000 PM EST SAT DEC 10 2016

NOTE: "FAIR" INDICATES FEW OR NO CLOUDS BELOW 12,000 FEET WITH NO
SIGNIFICANT WEATHER AND/OR OBSTRUCTIONS TO VISIBILITY.

* - STATION DOES NOT REPORT WEATHER SUCH AS PRECIPITATION OR FOG.

+ - STATION NOT QUALITY CONTROLLED BY THE NATIONAL WEATHER SERVICE.
    USE DATA WITH CAUTION...ESPECIALLY DEWPOINT AND RELATIVE
    HUMIDITY OBSERVATIONS.

INZ001>003-010>013-019-020-110400-
NORTHWEST INDIANA

CITY           SKY/WX    TMP DP  RH WIND       PRES   REMARKS
GARY /AIRPORT/ LGT SNOW  25  23  93 VRB3      30.35F
KNOX *+        CLOUDY    23  10  58 S5        30.36F WCI  17
LA PORTE +     LGT SNOW  22  20  92 CALM      30.36F
MONTICELLO +   LGT SNOW  24  19  83 CALM      30.37S
RENSSELAER +   LGT SNOW  27  25  93 SE5       30.36F WCI  21

$$

LMZ046-743>745-110400-
SOUTHERN LAKE MICHIGAN

STATION/POSITION TIME  TEMP    WIND        PRES    WAVE
                       AIR SEA DIR/SP/G            HT
                 (UTC) (F)     (DEG/KT/KT) (MB)    (FT)
BURNS HARBOR     0240   23     170/  5/ 10 1028.4F

$$

INZ004-005-014>016-021>024-110400-
NORTH CENTRAL INDIANA

CITY           SKY/WX    TMP DP  RH WIND       PRES   REMARKS
GOSHEN         LGT SNOW  23  18  81 S6        30.36F WCI  16
SOUTH BEND     LGT SNOW  22  20  92 SE5       30.36F FOG     WCI  16
WARSAW +       LGT SNOW  23  19  86 CALM      30.36F

$$

INZ006>009-017-018-025>027-110400-
NORTHEAST INDIANA

CITY           SKY/WX    TMP DP  RH WIND       PRES   REMARKS
ANGOLA *+      CLOUDY    21  19  93 S5        30.36F WCI  15
FORT WAYNE     LGT SNOW  24  21  88 S5        30.38F FOG     WCI  18
KENDALLVILLE + LGT SNOW  23  19  87 S5        30.36F WCI  17

$$

INZ028-029-035-036-043>045-051>053-110400-
WEST CENTRAL INDIANA

CITY           SKY/WX    TMP DP  RH WIND       PRES   REMARKS
CRAWFORDSVL +  CLOUDY    25  19  79 SE7       30.35S WCI  17
GREENCASTLE +  CLOUDY    28  21  74 SE6       30.35F WCI  22
LAFAYETTE      LGT SNOW  24  23  96 SE5       30.36F FOG     WCI  18
TERRE HAUTE    CLOUDY    28  18  66 SE6       30.35F WCI  22

$$

INZ030>032-037>040-046>048-054>057-064-065-110400-
CENTRAL INDIANA

CITY           SKY/WX    TMP DP  RH WIND       PRES   REMARKS
COLUMBUS       PTCLDY    27  21  80 SE5       30.39F WCI  21
FRANKFORT +    CLOUDY    28  25  89 SE6       30.37F WCI  21
GREENWOOD *+   CLOUDY    28  19  66 SE9       30.36F WCI  20
INDIANAPOLIS   CLOUDY    28  17  63 SE8       30.35F WCI  20
-EAGLE CREEK   CLOUDY    28  16  60 VRB5      30.35F WCI  23
KOKOMO +       LGT SNOW  24  22  91 SE6       30.37F FOG     WCI  17
SHELBYVILLE    CLOUDY    28  18  66 SE8       30.36F WCI  20

$$

INZ033-034-041-042-049-050-058-059-110400-
EAST CENTRAL INDIANA

CITY           SKY/WX    TMP DP  RH WIND       PRES   REMARKS
MUNCIE         LGT SNOW  26  22  84 S3        30.38F FOG

$$

INZ060-061-067>069-081>083-085>088-110400-
SOUTHWEST INDIANA

CITY           SKY/WX    TMP DP  RH WIND       PRES   REMARKS
EVANSVILLE     CLOUDY    33  17  51 SE9       30.36F WCI  25
HUNTINGBURG *+ CLOUDY    30  19  63 SE9       30.37F WCI  22

$$

INZ062-063-066-070>080-084-089>092-110400-
SOUTH CENTRAL AND SOUTHEAST INDIANA

CITY           SKY/WX    TMP DP  RH WIND       PRES   REMARKS
BLOOMINGTON    CLOUDY    28  17  63 SE9       30.34F WCI  19
MADISON *+     CLOUDY    30  18  59 SE5       30.40F WCI  25
SEYMOUR +      CLOUDY    30  19  64 SE5       30.39F WCI  25

$$




USA.gov is the U.S. government's official web portal to all federal, state and local government web resources and services.